Date String (YYYY-MM-DD hh:mm:ss) UTC,Instrument flags,Ambient pressure (hPa),Sample flow (lpm),Bypass flow (lpm),Sample temperature (°C),Ambient temperature (°C),ASC tube jacket temperature (°C),LED temperature (°C),Box temperature (°C),Sample RH (%),Span deviation,Mass concentration (μg/m³),Mass concentration (μg/m³),Mass concentration (μg/m³)
DateTimeUTC,F1_M11,P_M11,Q1_M11,Q2_M11,T1_M11,T2_M11,T3_M11,T4_M11,T5_M11,U1_M11,ZSPAN_M11,X0_M11,X2_M11,X1_M11
2022-03-09 05:00:00,,0820.5,5.01,0.00,21.7,21.2,00.0,31.0,23.4,09.6,0000.0,0010.01,0004.85,0004.38
2022-03-09 05:01:00,,0820.5,4.99,0.00,21.8,22.0,00.0,31.0,23.7,09.4,0000.0,0010.09,0004.80,0004.33
2022-03-09 05:02:00,,0820.5,5.00,0.00,22.0,22.7,00.0,31.0,23.9,09.3,0000.0,0009.59,0004.73,0004.29
2022-03-09 05:03:00,,0820.5,4.99,0.00,22.1,22.6,00.0,31.0,24.0,09.3,0000.0,0009.84,0004.72,0004.27
2022-03-09 05:04:00,,0820.5,5.00,0.00,22.1,22.4,00.0,31.0,23.9,09.3,0000.0,0009.85,0004.72,0004.25
2022-03-09 05:05:00,,0820.4,5.00,0.00,22.1,22.1,00.0,31.0,23.8,09.3,0000.0,0010.44,0004.68,0004.22
2022-03-09 05:06:00,,0820.4,5.00,0.00,22.0,21.9,00.0,31.0,23.8,09.4,0000.0,0010.46,0004.65,0004.19
2022-03-09 05:07:00,,0820.3,5.00,0.00,22.0,21.7,00.0,31.0,23.7,09.3,0000.0,0010.69,0004.65,0004.17
2022-03-09 05:08:00,,0820.3,5.00,0.00,22.0,21.5,00.0,31.0,23.6,09.3,0000.0,0011.02,0004.60,0004.16
2022-03-09 05:09:00,,0820.4,5.00,0.00,21.9,21.4,00.0,31.0,23.6,09.4,0000.0,0010.72,0004.60,0004.15
2022-03-09 05:10:00,,0820.5,5.00,0.00,21.9,21.3,00.0,31.0,23.5,09.4,0000.0,0010.36,0004.56,0004.12
2022-03-09 05:11:00,,0820.5,5.02,0.00,21.8,21.2,00.0,31.0,23.5,09.4,0000.0,0010.31,0004.56,0004.12
2022-03-09 05:12:00,,0820.5,4.99,0.00,21.8,21.1,00.0,31.0,23.5,09.5,0000.0,0010.04,0004.54,0004.11
2022-03-09 05:13:00,,0820.6,4.99,0.00,21.8,21.0,00.0,30.9,23.4,09.6,0000.0,0010.08,0004.57,0004.12
2022-03-09 05:14:00,,0820.5,5.02,0.00,21.7,20.9,00.0,30.9,23.3,09.6,0000.0,0009.60,0004.53,0004.11
2022-03-09 05:15:00,,0820.6,4.99,0.00,21.7,21.0,00.0,30.9,23.3,09.5,0000.0,0008.98,0004.49,0004.09
2022-03-09 05:16:00,,0820.6,5.00,0.00,21.8,21.7,00.0,30.9,23.5,09.5,0000.0,0007.98,0004.48,0004.09
2022-03-09 05:17:00,,0820.6,4.99,0.00,21.9,22.5,00.0,30.9,23.8,09.5,0000.0,0007.95,0004.48,0004.09
2022-03-09 05:18:00,,0820.7,5.00,0.00,22.1,22.9,00.0,31.0,24.0,09.4,0000.0,0007.85,0004.47,0004.10
2022-03-09 05:19:00,,0820.7,5.01,0.00,22.1,22.6,00.0,31.0,24.0,09.4,0000.0,0007.46,0004.48,0004.10
2022-03-09 05:20:00,,0820.7,5.01,0.00,22.1,22.3,00.0,31.0,24.0,09.4,0000.0,0007.87,0004.49,0004.10
2022-03-09 05:21:00,,0820.6,5.00,0.00,22.1,22.1,00.0,31.0,23.9,09.5,0000.0,0007.99,0004.51,0004.10
2022-03-09 05:22:00,,0820.6,5.00,0.00,22.1,21.8,00.0,31.0,23.9,09.4,0000.0,0008.03,0004.53,0004.09
2022-03-09 05:23:00,,0820.5,4.99,0.00,22.0,21.6,00.0,31.0,23.8,09.5,0000.0,0008.24,0004.55,0004.08
2022-03-09 05:24:00,,0820.4,5.00,0.00,22.0,21.5,00.0,31.0,23.7,09.5,0000.0,0008.35,0004.55,0004.08
2022-03-09 05:25:00,,0820.4,5.01,0.00,22.0,21.3,00.0,31.0,23.7,09.5,0000.0,0008.66,0004.59,0004.09
2022-03-09 05:26:00,,0820.5,5.02,0.00,21.9,21.3,00.0,31.0,23.7,09.5,0000.0,0008.68,0004.58,0004.10
2022-03-09 05:27:00,,0820.6,4.99,0.00,21.9,21.2,00.0,31.0,23.6,09.5,0000.0,0008.74,0004.59,0004.09
2022-03-09 05:28:00,,0820.6,5.02,0.00,21.9,21.2,00.0,31.0,23.6,09.6,0000.0,0009.17,0004.60,0004.10
2022-03-09 05:29:00,,0820.5,4.98,0.00,21.9,21.1,00.0,31.0,23.6,09.6,0000.0,0009.14,0004.60,0004.09
2022-03-09 05:30:00,,0820.6,5.00,0.00,21.9,21.5,00.0,31.0,23.7,09.6,0000.0,0008.99,0004.58,0004.08
2022-03-09 05:31:00,,0820.6,5.02,0.00,22.0,22.3,00.0,31.0,23.9,09.5,0000.0,0008.56,0004.55,0004.06
2022-03-09 05:32:00,,0820.6,5.00,0.00,22.2,23.0,00.0,31.0,24.1,09.5,0000.0,0008.38,0004.51,0004.05
2022-03-09 05:33:00,,0820.5,4.99,0.00,22.3,22.8,00.0,31.1,24.2,09.4,0000.0,0008.48,0004.48,0004.04
2022-03-09 05:34:00,,0820.4,5.01,0.00,22.3,22.5,00.0,31.1,24.2,09.4,0000.0,0008.83,0004.46,0004.02
2022-03-09 05:35:00,,0820.3,5.00,0.00,22.2,22.2,00.0,31.1,24.1,09.4,0000.0,0008.67,0004.41,0003.98
2022-03-09 05:36:00,,0820.4,5.00,0.00,22.2,22.0,00.0,31.1,24.0,09.4,0000.0,0008.31,0004.34,0003.95
2022-03-09 05:37:00,,0820.4,5.00,0.00,22.2,21.8,00.0,31.1,24.0,09.5,0000.0,0008.25,0004.32,0003.92
2022-03-09 05:38:00,,0820.3,5.01,0.00,22.2,21.7,00.0,31.1,23.9,09.5,0000.0,0008.17,0004.27,0003.90
2022-03-09 05:39:00,,0820.3,5.00,0.00,22.1,21.6,00.0,31.1,23.9,09.5,0000.0,0007.61,0004.22,0003.87
2022-03-09 05:40:00,,0820.3,5.00,0.00,22.1,21.5,00.0,31.1,23.8,09.6,0000.0,0007.47,0004.16,0003.82
2022-03-09 05:41:00,,0820.2,4.99,0.00,22.1,21.4,00.0,31.1,23.8,09.6,0000.0,0007.48,0004.14,0003.80
2022-03-09 05:42:00,,0820.3,5.02,0.00,22.0,21.3,00.0,31.1,23.8,09.6,0000.0,0007.58,0004.14,0003.77
2022-03-09 05:43:00,,0820.3,5.00,0.00,22.0,21.2,00.0,31.1,23.7,09.7,0000.0,0007.77,0004.13,0003.74
2022-03-09 05:44:00,,0820.3,5.00,0.00,22.0,21.2,00.0,31.1,23.7,09.7,0000.0,0007.75,0004.08,0003.71
2022-03-09 05:45:00,,0820.3,5.01,0.00,22.0,21.7,00.0,31.1,23.8,09.6,0000.0,0006.59,0004.02,0003.67
2022-03-09 05:46:00,,0820.4,5.00,0.00,22.2,22.5,00.0,31.1,24.1,09.5,0000.0,0006.64,0004.02,0003.66
2022-03-09 05:47:00,,0820.3,5.01,0.00,22.3,23.2,00.0,31.2,24.3,09.5,0000.0,0007.19,0004.02,0003.64
2022-03-09 05:48:00,,0820.3,4.99,0.00,22.4,23.1,00.0,31.2,24.4,09.4,0000.0,0007.25,0004.01,0003.61
2022-03-09 05:49:00,,0820.3,5.01,0.00,22.4,22.8,00.0,31.2,24.3,09.3,0000.0,0007.13,0003.98,0003.59
2022-03-09 05:50:00,,0820.3,5.00,0.00,22.4,22.5,00.0,31.2,24.3,09.4,0000.0,0007.41,0003.98,0003.57
2022-03-09 05:51:00,,0820.4,4.99,0.00,22.4,22.2,00.0,31.2,24.2,09.4,0000.0,0007.99,0003.97,0003.57
2022-03-09 05:52:00,,0820.5,4.99,0.00,22.4,22.0,00.0,31.2,24.1,09.4,0000.0,0008.07,0003.95,0003.55
2022-03-09 05:53:00,,0820.5,5.00,0.00,22.3,21.8,00.0,31.2,24.1,09.4,0000.0,0007.98,0003.89,0003.52
2022-03-09 05:54:00,,0820.6,5.00,0.00,22.3,21.7,00.0,31.3,24.0,09.4,0000.0,0007.69,0003.85,0003.51
2022-03-09 05:55:00,,0820.5,5.01,0.00,22.3,21.7,00.0,31.3,24.0,09.4,0000.0,0007.70,0003.84,0003.50
2022-03-09 05:56:00,,0820.5,5.00,0.00,22.2,21.6,00.0,31.2,24.0,09.4,0000.0,0007.77,0003.84,0003.48
2022-03-09 05:57:00,,0820.5,5.00,0.00,22.2,21.5,00.0,31.2,23.9,09.5,0000.0,0008.30,0003.84,0003.47
2022-03-09 05:58:00,,0820.5,5.01,0.00,22.2,21.5,00.0,31.2,23.9,09.5,0000.0,0008.07,0003.79,0003.44
2022-03-09 05:59:00,,0820.5,5.00,0.00,22.2,21.4,00.0,31.2,23.9,09.5,0000.0,0007.98,0003.76,0003.42
